QPF
0.06 0.06 0.06 0.06 0.06 0.06 0.06 0.06 0.06 0.06 0.04 0.02 0.02 0.02 0.01 0.01 0.01 0.01 0.01 0.01 0.01 0.01 0.01 0.01 0.01 0.01 0.01 0.01 0.00 0.00 0.00 0.01 0.01 0.03 0.04 0.04 0.05 0.06
0.07 0.08 0.07 0.06 0.05 0.05 0.05 0.05 0.06 0.06 0.05 0.04 0.03 0.02 0.02 0.01 0.01 0.01 0.01 0.01 0.01 0.01 0.01 0.00 0.01 0.01 0.01 0.01 0.00 0.01 0.01 0.01 0.01 0.02 0.04 0.04 0.04 0.04
0.05 0.05 0.05 0.05 0.05 0.05 0.05 0.05 0.05 0.06 0.05 0.04 0.04 0.03 0.03 0.03 0.02 0.01 0.01 0.01 0.01 0.01 0.00 0.01 0.01 0.01 0.01 0.01 0.00 0.00 0.00 0.00 0.01 0.02 0.03 0.03 0.03 0.03
0.06 0.06 0.06 0.07 0.07 0.06 0.06 0.05 0.05 0.06 0.06 0.05 0.04 0.04 0.04 0.03 0.03 0.02 0.02 0.01 0.01 0.01 0.01 0.01 0.02 0.02 0.01 0.01 0.00 0.00 0.00 0.00 0.01 0.02 0.02 0.03 0.02 0.03
0.06 0.06 0.06 0.06 0.06 0.06 0.06 0.06 0.05 0.05 0.06 0.05 0.04 0.03 0.03 0.03 0.02 0.03 0.02 0.02 0.01 0.02 0.02 0.01 0.01 0.01 0.01 0.00 0.00 0.00 0.00 0.00 0.01 0.02 0.02 0.03 0.03 0.03
0.08 0.07 0.06 0.06 0.06 0.05 0.05 0.05 0.06 0.06 0.06 0.06 0.05 0.04 0.03 0.02 0.02 0.02 0.02 0.02 0.02 0.01 0.02 0.02 0.01 0.01 0.01 0.01 0.00 0.00 0.00 0.00 0.01 0.01 0.02 0.03 0.03 0.02
0.08 0.08 0.07 0.07 0.07 0.06 0.06 0.07 0.07 0.07 0.06 0.06 0.05 0.04 0.03 0.03 0.02 0.02 0.01 0.01 0.01 0.01 0.01 0.01 0.01 0.01 0.00 0.01 0.01 0.01 0.01 0.01 0.01 0.01 0.02 0.02 0.03 0.02
0.09 0.08 0.08 0.08 0.08 0.08 0.08 0.08 0.08 0.07 0.07 0.06 0.05 0.04 0.03 0.02 0.02 0.01 0.01 0.01 0.02 0.01 0.01 0.01 0.01 0.01 0.00 0.00 0.01 0.01 0.02 0.02 0.02 0.02 0.02 0.02 0.02 0.02
0.09 0.08 0.08 0.08 0.09 0.09 0.09 0.09 0.09 0.09 0.09 0.08 0.07 0.05 0.03 0.03 0.02 0.02 0.01 0.01 0.01 0.01 0.01 0.01 0.01 0.01 0.00 0.01 0.01 0.01 0.02 0.03 0.03 0.03 0.03 0.03 0.02 0.02
0.11 0.10 0.09 0.09 0.10 0.11 0.10 0.10 0.09 0.09 0.09 0.08 0.07 0.05 0.04 0.03 0.02 0.02 0.01 0.01 0.01 0.01 0.01 0.01 0.01 0.00 0.00 0.01 0.01 0.01 0.02 0.02 0.02 0.03 0.03 0.03 0.03 0.02
0.12 0.11 0.11 0.10 0.11 0.11 0.10 0.09 0.08 0.08 0.08 0.08 0.07 0.06 0.05 0.04 0.03 0.02 0.01 0.01 0.01 0.01 0.01 0.01 0.01 0.00 0.01 0.01 0.01 0.01 0.01 0.02 0.02 0.02 0.02 0.02 0.02 0.02
0.12 0.12 0.13 0.12 0.11 0.11 0.10 0.09 0.09 0.07 0.06 0.06 0.06 0.05 0.04 0.03 0.02 0.01 0.01 0.01 0.01 0.00 0.00 0.00 0.00 0.00 0.01 0.01 0.01 0.00 0.01 0.01 0.02 0.02 0.02 0.02 0.02 0.02
0.11 0.10 0.11 0.12 0.12 0.11 0.10 0.09 0.09 0.08 0.06 0.05 0.05 0.04 0.03 0.03 0.02 0.01 0.01 0.01 0.00 0.00 0.00 0.00 0.00 0.00 0.00 0.01 0.00 0.00 0.00 0.01 0.01 0.01 0.01 0.01 0.01 0.01
0.08 0.08 0.08 0.09 0.09 0.08 0.07 0.06 0.07 0.06 0.05 0.04 0.03 0.03 0.02 0.02 0.01 0.01 0.01 0.00 0.00 0.00 0.01 0.00 0.00 0.00 0.00 0.00 0.00 0.00 0.00 0.00 0.00 0.00 0.00 0.01 0.01 0.01
0.09 0.09 0.09 0.09 0.09 0.07 0.06 0.06 0.05 0.04 0.04 0.03 0.02 0.02 0.01 0.01 0.01 0.01 0.01 0.00 0.00 0.00 0.01 0.01 0.01 0.01 0.00 0.00 0.00 0.00 0.00 0.00 0.00 0.00 0.00 0.00 0.00 0.00
0.10 0.10 0.10 0.10 0.09 0.08 0.07 0.05 0.04 0.04 0.03 0.03 0.02 0.01 0.01 0.01 0.01 0.00 0.00 0.00 0.00 0.00 0.01 0.01 0.01 0.01 0.00 0.00 0.00 0.00 0.00 0.00 0.00 0.00 0.00 0.00 0.00 0.00
0.08 0.07 0.08 0.09 0.08 0.07 0.06 0.05 0.04 0.04 0.04 0.03 0.02 0.02 0.01 0.01 0.01 0.01 0.00 0.00 0.00 0.00 0.00 0.01 0.01 0.00 0.00 0.00 0.00 0.00 0.00 0.00 0.00 0.00 0.00 0.00 0.00 0.00
0.09 0.07 0.06 0.06 0.06 0.05 0.05 0.05 0.04 0.04 0.03 0.03 0.02 0.02 0.02 0.01 0.01 0.01 0.00 0.00 0.00 0.00 0.00 0.00 0.00 0.00 0.00 0.00 0.00 0.00 0.00 0.00 0.00 0.00 0.00 0.00 0.00 0.00
0.09 0.07 0.05 0.05 0.05 0.05 0.05 0.05 0.05 0.04 0.04 0.04 0.03 0.03 0.02 0.01 0.01 0.01 0.01 0.00 0.00 0.00 0.00 0.00 0.00 0.00 0.00 0.00 0.00 0.00 0.00 0.00 0.00 0.00 0.00 0.00 0.00 0.00
0.08 0.07 0.06 0.05 0.05 0.05 0.06 0.06 0.06 0.05 0.04 0.04 0.03 0.02 0.02 0.02 0.01 0.01 0.01 0.01 0.00 0.00 0.00 0.00 0.00 0.00 0.00 0.00 0.00 0.00 0.00 0.00 0.00 0.00 0.00 0.00 0.00 0.00
0.08 0.08 0.07 0.06 0.05 0.05 0.06 0.06 0.06 0.05 0.04 0.03 0.03 0.02 0.02 0.02 0.01 0.01 0.01 0.01 0.01 0.01 0.01 0.00 0.00 0.00 0.00 0.01 0.01 0.00 0.00 0.00 0.00 0.00 0.00 0.00 0.00 0.00
0.08 0.07 0.06 0.06 0.05 0.05 0.05 0.05 0.05 0.04 0.04 0.03 0.03 0.02 0.02 0.02 0.01 0.01 0.01 0.01 0.01 0.01 0.01 0.01 0.01 0.01 0.01 0.01 0.01 0.00 0.00 0.00 0.00 0.00 0.00 0.00 0.00 0.00
0.06 0.06 0.06 0.05 0.05 0.05 0.05 0.05 0.04 0.04 0.04 0.03 0.03 0.03 0.02 0.02 0.01 0.01 0.01 0.01 0.01 0.01 0.01 0.01 0.01 0.01 0.01 0.01 0.01 0.00 0.00 0.00 0.00 0.00 0.00 0.00 0.00 0.00
MSLP
1017.90 1018.35 1018.77 1019.14 1019.48 1019.82 1020.17 1020.57 1021.03 1021.55 1022.12 1022.70 1023.24 1023.68 1023.99 1024.13 1024.11 1023.94 1023.67 1023.36 1023.09 1022.91 1022.85 1022.93 1023.10 1023.32 1023.51 1023.59 1023.49 1023.17 1022.63 1021.90 1021.04 1020.14 1019.29 1018.61 1018.15 1017.96
1017.63 1018.03 1018.39 1018.72 1019.02 1019.34 1019.70 1020.13 1020.64 1021.23 1021.88 1022.54 1023.16 1023.69 1024.07 1024.28 1024.31 1024.18 1023.95 1023.68 1023.43 1023.26 1023.21 1023.29 1023.45 1023.66 1023.84 1023.91 1023.80 1023.47 1022.93 1022.20 1021.34 1020.45 1019.61 1018.93 1018.47 1018.28
1017.33 1017.69 1018.00 1018.29 1018.57 1018.87 1019.24 1019.69 1020.24 1020.89 1021.60 1022.33 1023.03 1023.62 1024.08 1024.35 1024.44 1024.37 1024.19 1023.95 1023.74 1023.59 1023.55 1023.62 1023.78 1023.97 1024.13 1024.19 1024.08 1023.77 1023.26 1022.58 1021.78 1020.94 1020.16 1019.53 1019.09 1018.90
1016.98 1017.32 1017.61 1017.88 1018.14 1018.45 1018.83 1019.31 1019.90 1020.58 1021.34 1022.11 1022.86 1023.51 1024.01 1024.34 1024.49 1024.48 1024.36 1024.17 1023.99 1023.87 1023.84 1023.91 1024.05 1024.22 1024.36 1024.41 1024.31 1024.04 1023.59 1022.99 1022.28 1021.55 1020.87 1020.31 1019.93 1019.76
1016.58 1016.93 1017.23 1017.51 1017.80 1018.13 1018.53 1019.03 1019.64 1020.34 1021.12 1021.92 1022.69 1023.36 1023.90 1024.27 1024.47 1024.52 1024.45 1024.32 1024.18 1024.09 1024.06 1024.12 1024.24 1024.39 1024.51 1024.56 1024.48 1024.26 1023.88 1023.39 1022.81 1022.21 1021.65 1021.20 1020.89 1020.76
1016.16 1016.54 1016.88 1017.21 1017.54 1017.91 1018.35 1018.87 1019.50 1020.21 1020.98 1021.77 1022.53 1023.21 1023.76 1024.15 1024.39 1024.49 1024.47 1024.40 1024.30 1024.24 1024.22 1024.28 1024.37 1024.49 1024.59 1024.63 1024.57 1024.40 1024.12 1023.74 1023.29 1022.84 1022.42 1022.08 1021.86 1021.77
1015.74 1016.18 1016.59 1016.98 1017.38 1017.81 1018.29 1018.84 1019.47 1020.18 1020.93 1021.69 1022.42 1023.06 1023.60 1024.01 1024.27 1024.41 1024.44 1024.42 1024.37 1024.34 1024.34 1024.38 1024.46 1024.55 1024.63 1024.66 1024.61 1024.49 1024.28 1024.01 1023.70 1023.38 1023.10 1022.88 1022.75 1022.70
1015.37 1015.87 1016.36 1016.83 1017.31 1017.80 1018.34 1018.92 1019.55 1020.24 1020.95 1021.66 1022.34 1022.95 1023.46 1023.85 1024.13 1024.30 1024.38 1024.41 1024.41 1024.41 1024.43 1024.47 1024.53 1024.60 1024.65 1024.66 1024.63 1024.54 1024.39 1024.21 1024.01 1023.82 1023.66 1023.54 1023.49 1023.50
1015.06 1015.63 1016.19 1016.75 1017.30 1017.87 1018.45 1019.06 1019.70 1020.36 1021.03 1021.69 1022.31 1022.86 1023.34 1023.72 1024.00 1024.20 1024.33 1024.40 1024.45 1024.49 1024.53 1024.58 1024.62 1024.66 1024.69 1024.68 1024.65 1024.57 1024.47 1024.36 1024.24 1024.14 1024.08 1024.05 1024.06 1024.12
1014.85 1015.46 1016.09 1016.72 1017.35 1017.98 1018.61 1019.25 1019.89 1020.53 1021.16 1021.76 1022.32 1022.82 1023.26 1023.62 1023.91 1024.13 1024.29 1024.41 1024.51 1024.58 1024.65 1024.70 1024.74 1024.77 1024.77 1024.74 1024.70 1024.63 1024.55 1024.47 1024.41 1024.38 1024.38 1024.41 1024.48 1024.58
1014.73 1015.38 1016.05 1016.73 1017.41 1018.10 1018.77 1019.43 1020.08 1020.70 1021.30 1021.86 1022.37 1022.82 1023.23 1023.57 1023.86 1024.10 1024.29 1024.46 1024.59 1024.71 1024.80 1024.86 1024.90 1024.91 1024.90 1024.85 1024.79 1024.71 1024.64 1024.58 1024.55 1024.55 1024.59 1024.66 1024.76 1024.89
1014.72 1015.37 1016.06 1016.77 1017.50 1018.22 1018.93 1019.61 1020.26 1020.88 1021.45 1021.97 1022.44 1022.87 1023.24 1023.57 1023.86 1024.11 1024.34 1024.53 1024.70 1024.85 1024.96 1025.04 1025.08 1025.09 1025.06 1025.00 1024.92 1024.84 1024.76 1024.70 1024.68 1024.69 1024.74 1024.83 1024.95 1025.09
1014.80 1015.44 1016.13 1016.86 1017.60 1018.34 1019.07 1019.77 1020.42 1021.03 1021.59 1022.09 1022.54 1022.94 1023.29 1023.61 1023.90 1024.16 1024.41 1024.63 1024.82 1024.99 1025.12 1025.22 1025.27 1025.27 1025.24 1025.17 1025.08 1024.98 1024.90 1024.83 1024.80 1024.81 1024.86 1024.95 1025.07 1025.21
1014.94 1015.57 1016.25 1016.97 1017.72 1018.47 1019.20 1019.90 1020.56 1021.16 1021.71 1022.20 1022.64 1023.02 1023.37 1023.68 1023.97 1024.24 1024.49 1024.72 1024.93 1025.12 1025.26 1025.37 1025.42 1025.43 1025.39 1025.32 1025.23 1025.12 1025.03 1024.96 1024.92 1024.91 1024.94 1025.02 1025.12 1025.24
1015.13 1015.73 1016.39 1017.10 1017.83 1018.57 1019.30 1020.00 1020.65 1021.25 1021.79 1022.28 1022.71 1023.09 1023.43 1023.74 1024.03 1024.30 1024.56 1024.80 1025.01 1025.20 1025.36 1025.47 1025.53 1025.54 1025.51 1025.44 1025.34 1025.24 1025.14 1025.05 1025.00 1024.97 1024.98 1025.02 1025.09 1025.18
1015.29 1015.88 1016.52 1017.21 1017.92 1018.64 1019.35 1020.03 1020.67 1021.26 1021.80 1022.29 1022.72 1023.10 1023.45 1023.76 1024.05 1024.32 1024.58 1024.82 1025.04 1025.23 1025.38 1025.49 1025.56 1025.58 1025.55 1025.49 1025.40 1025.30 1025.19 1025.10 1025.02 1024.97 1024.95 1024.95 1024.98 1025.03
1015.38 1015.96 1016.58 1017.24 1017.92 1018.61 1019.29 1019.95 1020.58 1021.16 1021.70 1022.18 1022.62 1023.02 1023.37 1023.69 1023.99 1024.27 1024.52 1024.76 1024.98 1025.16 1025.32 1025.43 1025.50 1025.53 1025.51 1025.46 1025.38 1025.28 1025.18 1025.07 1024.98 1024.90 1024.84 1024.81 1024.79 1024.79
1015.33 1015.90 1016.51 1017.14 1017.79 1018.44 1019.09 1019.72 1020.32 1020.90 1021.43 1021.93 1022.38 1022.78 1023.16 1023.49 1023.80 1024.09 1024.35 1024.59 1024.81 1025.00 1025.15 1025.27 1025.35 1025.38 1025.38 1025.34 1025.27 1025.18 1025.08 1024.97 1024.86 1024.75 1024.66 1024.58 1024.51 1024.46
1015.12 1015.68 1016.26 1016.86 1017.47 1018.09 1018.70 1019.30 1019.88 1020.45 1020.98 1021.49 1021.95 1022.38 1022.78 1023.14 1023.47 1023.77 1024.04 1024.29 1024.51 1024.71 1024.87 1024.99 1025.08 1025.13 1025.15 1025.12 1025.07 1024.99 1024.89 1024.78 1024.66 1024.53 1024.41 1024.29 1024.17 1024.07
1014.73 1015.28 1015.84 1016.41 1016.98 1017.56 1018.13 1018.71 1019.27 1019.83 1020.36 1020.87 1021.36 1021.81 1022.23 1022.62 1022.98 1023.30 1023.59 1023.85 1024.09 1024.29 1024.46 1024.60 1024.70 1024.78 1024.81 1024.81 1024.78 1024.71 1024.62 1024.52 1024.39 1024.25 1024.10 1023.96 1023.81 1023.67
1014.24 1014.76 1015.29 1015.82 1016.36 1016.90 1017.44 1017.99 1018.54 1019.08 1019.62 1020.14 1020.64 1021.12 1021.56 1021.98 1022.35 1022.70 1023.01 1023.28 1023.53 1023.75 1023.94 1024.09 1024.22 1024.32 1024.38 1024.40 1024.40 1024.36 1024.29 1024.20 1024.08 1023.94 1023.78 1023.62 1023.45 1023.29
1013.73 1014.22 1014.71 1015.20 1015.70 1016.21 1016.72 1017.24 1017.78 1018.31 1018.85 1019.37 1019.88 1020.37 1020.83 1021.25 1021.65 1022.00 1022.33 1022.62 1022.88 1023.11 1023.32 1023.50 1023.65 1023.77 1023.87 1023.93 1023.96 1023.95 1023.91 1023.83 1023.73 1023.60 1023.46 1023.29 1023.12 1022.95
1013.31 1013.76 1014.21 1014.67 1015.13 1015.61 1016.09 1016.59 1017.10 1017.62 1018.14 1018.66 1019.17 1019.65 1020.11 1020.54 1020.93 1021.29 1021.62 1021.91 1022.18 1022.43 1022.65 1022.85 1023.03 1023.18 1023.31 1023.41 1023.47 1023.50 1023.50 1023.46 1023.38 1023.27 1023.14 1022.99 1022.83 1022.67
Thickness
5615 5614 5613 5612 5611 5610 5609 5608 5603 5597 5595 5591 5588 5586 5585 5582 5580 5578 5576 5573 5571 5568 5565 5563 5560 5557 5555 5551 5548 5545 5543 5541 5539 5538 5538 5536 5535 5534
5606 5605 5605 5604 5602 5601 5600 5600 5598 5595 5589 5584 5581 5577 5575 5573 5571 5568 5566 5564 5561 5558 5556 5553 5550 5548 5545 5542 5539 5536 5534 5532 5530 5529 5528 5527 5526 5525
5597 5597 5597 5596 5594 5592 5590 5589 5588 5586 5581 5574 5570 5567 5564 5562 5559 5557 5555 5554 5551 5549 5546 5543 5540 5538 5535 5532 5529 5526 5524 5522 5521 5519 5519 5518 5517 5516
5589 5588 5587 5585 5584 5583 5580 5579 5577 5576 5572 5566 5560 5557 5554 5552 5549 5547 5544 5543 5541 5538 5536 5533 5530 5527 5525 5522 5519 5516 5514 5512 5511 5510 5509 5509 5508 5507
5580 5579 5578 5576 5575 5573 5571 5569 5566 5564 5562 5559 5553 5548 5544 5541 5539 5536 5534 5532 5530 5527 5525 5522 5520 5517 5514 5511 5509 5506 5504 5503 5501 5500 5499 5498 5498 5497
5571 5571 5570 5569 5567 5564 5562 5560 5557 5554 5551 5548 5544 5540 5536 5532 5529 5526 5523 5521 5519 5516 5514 5512 5510 5506 5503 5501 5499 5497 5495 5493 5491 5490 5489 5488 5487 5487
5561 5560 5560 5559 5557 5555 5554 5551 5548 5545 5541 5538 5534 5531 5526 5522 5521 5517 5514 5509 5507 5505 5503 5501 5499 5496 5493 5491 5489 5487 5485 5483 5482 5480 5479 5478 5477 5476
5550 5549 5549 5547 5546 5545 5544 5543 5541 5537 5533 5530 5527 5524 5521 5517 5513 5508 5504 5500 5497 5495 5493 5490 5488 5485 5483 5481 5479 5477 5475 5474 5472 5470 5468 5467 5466 5465
5540 5539 5538 5537 5536 5534 5533 5531 5528 5528 5527 5525 5521 5518 5514 5511 5506 5499 5496 5493 5490 5487 5484 5480 5477 5474 5473 5471 5469 5467 5465 5464 5462 5460 5458 5457 5456 5455
5529 5529 5528 5526 5525 5523 5520 5516 5514 5514 5515 5515 5513 5509 5506 5503 5500 5495 5489 5483 5477 5475 5474 5470 5466 5465 5464 5462 5460 5458 5455 5453 5452 5451 5449 5448 5447 5446
5517 5516 5516 5514 5514 5512 5508 5504 5502 5501 5501 5500 5499 5496 5494 5492 5488 5482 5477 5472 5468 5465 5462 5460 5456 5454 5452 5451 5450 5449 5447 5445 5443 5441 5440 5439 5438 5436
5504 5504 5503 5502 5501 5500 5497 5494 5491 5488 5486 5484 5483 5482 5480 5478 5475 5473 5469 5464 5460 5456 5453 5450 5446 5444 5442 5441 5441 5440 5438 5436 5434 5432 5431 5430 5429 5427
5492 5491 5491 5490 5489 5487 5485 5484 5482 5477 5474 5471 5468 5467 5465 5463 5462 5460 5458 5455 5451 5448 5445 5441 5437 5434 5433 5431 5430 5429 5428 5426 5425 5423 5421 5421 5420 5419
5479 5478 5478 5478 5476 5475 5472 5470 5469 5466 5462 5459 5456 5454 5452 5450 5449 5447 5445 5443 5442 5439 5436 5434 5430 5426 5423 5421 5420 5419 5418 5417 5416 5414 5413 5412 5411 5410
5466 5465 5465 5464 5463 5461 5459 5458 5456 5453 5451 5448 5446 5443 5441 5439 5437 5435 5432 5431 5429 5427 5425 5424 5422 5419 5416 5413 5410 5409 5408 5408 5407 5406 5404 5403 5403 5402
5450 5450 5449 5448 5448 5447 5446 5445 5443 5442 5441 5439 5436 5432 5429 5427 5425 5423 5420 5419 5416 5414 5413 5413 5412 5410 5406 5404 5402 5400 5399 5398 5398 5397 5396 5395 5395 5395
5437 5435 5434 5433 5432 5432 5431 5431 5430 5429 5428 5426 5423 5421 5418 5416 5414 5412 5410 5408 5406 5404 5402 5401 5400 5399 5398 5396 5393 5393 5391 5390 5390 5389 5387 5387 5388 5388
5425 5423 5422 5422 5422 5422 5421 5419 5418 5418 5417 5415 5413 5411 5409 5407 5404 5402 5400 5399 5397 5395 5393 5391 5390 5388 5387 5387 5387 5386 5384 5382 5381 5381 5379 5378 5379 5381
5412 5412 5412 5412 5411 5411 5410 5410 5409 5407 5406 5405 5403 5402 5400 5398 5396 5393 5391 5389 5387 5386 5384 5382 5380 5379 5377 5378 5380 5379 5376 5375 5374 5372 5372 5371 5372 5374
5399 5399 5400 5400 5400 5400 5400 5399 5398 5397 5396 5395 5394 5393 5391 5389 5387 5385 5383 5381 5379 5377 5375 5374 5372 5372 5371 5369 5369 5369 5370 5368 5366 5365 5364 5364 5364 5366
5385 5386 5387 5388 5389 5390 5390 5390 5390 5389 5388 5387 5385 5384 5383 5381 5379 5377 5375 5374 5372 5370 5369 5368 5367 5366 5364 5361 5360 5360 5361 5361 5360 5357 5356 5355 5355 5357
5372 5373 5375 5377 5378 5379 5380 5380 5380 5380 5379 5378 5377 5376 5375 5374 5372 5370 5369 5367 5366 5364 5362 5360 5359 5357 5354 5354 5353 5351 5351 5351 5351 5351 5350 5349 5348 5347
5360 5362 5363 5365 5367 5368 5370 5371 5372 5371 5371 5370 5369 5368 5367 5366 5365 5364 5362 5360 5358 5356 5354 5351 5349 5348 5347 5346 5345 5343 5342 5341 5341 5341 5342 5343 5343 5343